Boonville, MO

12:20 PM CDT on June 28, 2017 (GMT -0500)
Viertel Memorial

Weather History for KVER - May, 2014

Change the Weather History Date:

Wednesday, May 7, 2014

  Actual Average Record
Temperature  
Mean Temperature 77 °F -  
Max Temperature 89 °F 72 °F 93 °F (1955)
Min Temperature 66 °F 51 °F 36 °F (1989)
Cooling Degree Days 12    
Growing Degree Days 27 (Base 50)    
Moisture  
Dew Point 60 °F    
Average Humidity 55    
Maximum Humidity 78    
Minimum Humidity 35    
Precipitation  
Precipitation 0.00 in - - ()
Sea Level Pressure  
Sea Level Pressure 29.70 in    
Wind  
Wind Speed 11 mph (SSE)    
Max Wind Speed 18 mph    
Max Gust Speed 25 mph    
Visibility 10 miles    
Events Thunderstorm    
Averages and records for this station are not official NWS values.
T = Trace of Precipitation, MM = Missing Value Source: NWS Daily Summary

Daily Weather History Graph

Daily Weather History Graph

Search for Another Location

Airport or City:

Trip Planner

Search our weather history database for the weather conditions in past years. The results will help you decide how hot, cold, wet, or windy it might be!

Date:

Astronomy

May. 07, 2014 Rise Set
Actual Time 6:05 AM CDT 8:09 PM CDT
Civil Twilight 5:36 AM CDT 8:38 PM CDT
Nautical Twilight 5:00 AM CDT 9:14 PM CDT
Astronomical Twilight 4:22 AM CDT 9:53 PM CDT
Moon 1:18 PM CDT (5/7) 2:01 AM CDT (5/7)
Length of Visible Light 15h 01m
Length of Day
14h 03m
First Quarter, 55% of the Moon is Illuminated
May 7
First Quarter
May 14
Full
May 21
Last Quarter
May 28
New
Jun 5
First Quarter

Hourly Weather History & Observations

Time (CDT) Temp. Heat Index Dew Point Humidity Pressure Visibility Wind Dir Wind Speed Gust Speed Precip Events Conditions
12:15 AM 75.4 °F - 59.5 °F 58% 29.66 in 10.0 mi South 12.7 mph 18.4 mph N/A   Clear
12:35 AM 74.8 °F - 59.5 °F 59% 29.66 in 10.0 mi South 13.8 mph - N/A   Clear
12:55 AM 74.5 °F - 59.5 °F 60% 29.66 in 10.0 mi South 11.5 mph - N/A   Clear
1:15 AM 74.1 °F - 59.5 °F 60% 29.67 in 10.0 mi South 10.4 mph - N/A   Clear
1:35 AM 73.6 °F - 59.5 °F 61% 29.68 in 10.0 mi South 8.1 mph - N/A   Clear
1:55 AM 72.7 °F - 59.9 °F 64% 29.67 in 10.0 mi South 8.1 mph - N/A   Clear
2:15 AM 71.4 °F - 59.9 °F 67% 29.67 in 10.0 mi South 9.2 mph - N/A   Clear
2:35 AM 70.9 °F - 59.9 °F 68% 29.66 in 10.0 mi South 8.1 mph - N/A   Clear
2:55 AM 70.7 °F - 59.9 °F 69% 29.67 in 10.0 mi SSE 9.2 mph - N/A Thunderstorm Clear
3:15 AM 70.2 °F - 59.9 °F 70% 29.67 in 10.0 mi SSE 8.1 mph - N/A Thunderstorm Clear
3:35 AM 70.2 °F - 59.9 °F 70% 29.67 in 7.0 mi South 6.9 mph - N/A   Clear
3:55 AM 69.8 °F - 59.5 °F 70% 29.68 in 10.0 mi South 5.8 mph - N/A   Clear
4:15 AM 69.4 °F - 59.2 °F 70% 29.69 in 10.0 mi South 5.8 mph - N/A   Clear
4:35 AM 68.0 °F - 59.2 °F 73% 29.69 in 10.0 mi South 5.8 mph - N/A   Clear
4:55 AM 67.6 °F - 59.4 °F 75% 29.69 in 10.0 mi South 5.8 mph - N/A   Clear
5:15 AM 67.3 °F - 59.4 °F 76% 29.69 in 10.0 mi SE 6.9 mph - N/A   Clear
5:35 AM 67.3 °F - 59.2 °F 75% 29.69 in 10.0 mi SE 6.9 mph - N/A   Clear
5:55 AM 67.3 °F - 59.0 °F 75% 29.70 in 10.0 mi NNW 6.9 mph - N/A   Clear
6:15 AM 66.9 °F - 59.0 °F 76% 29.70 in 10.0 mi SE 6.9 mph - N/A   Clear
6:35 AM 66.2 °F - 59.0 °F 78% 29.71 in 10.0 mi SE 6.9 mph - N/A   Clear
6:55 AM 66.4 °F - 59.4 °F 78% 29.71 in 10.0 mi SE 8.1 mph - N/A   Clear
7:15 AM 68.0 °F - 59.7 °F 75% 29.71 in 10.0 mi SSE 8.1 mph - N/A   Clear
7:35 AM 69.8 °F - 59.7 °F 70% 29.71 in 10.0 mi NNW 9.2 mph - N/A   Clear
7:55 AM 70.5 °F - 59.7 °F 69% 29.72 in 10.0 mi SSE 10.4 mph - N/A   Clear
8:15 AM 72.9 °F - 59.9 °F 64% 29.72 in 10.0 mi South 13.8 mph - N/A   Clear
8:35 AM 74.5 °F - 59.7 °F 60% 29.74 in 10.0 mi South 11.5 mph 18.4 mph N/A   Clear
8:55 AM 75.0 °F - 59.5 °F 58% 29.73 in 10.0 mi South 8.1 mph 18.4 mph N/A   Clear
9:15 AM 75.6 °F - 59.9 °F 58% 29.73 in 10.0 mi South 10.4 mph - N/A   Clear
9:35 AM 76.8 °F - 60.1 °F 56% 29.73 in 10.0 mi South 9.2 mph - N/A   Clear
9:55 AM 77.9 °F - 60.3 °F 54% 29.73 in 10.0 mi South 11.5 mph 17.3 mph N/A   Clear
10:15 AM 79.2 °F - 60.8 °F 53% 29.73 in 10.0 mi South 11.5 mph 18.4 mph N/A   Clear
10:35 AM 79.0 °F - 60.1 °F 52% 29.73 in 10.0 mi South 13.8 mph 20.7 mph N/A   Clear
10:55 AM 79.3 °F - 59.9 °F 51% 29.72 in 10.0 mi South 15.0 mph 20.7 mph N/A   Clear
11:15 AM 80.6 °F 81.2 °F 59.7 °F 49% 29.72 in 10.0 mi South 15.0 mph 19.6 mph N/A   Clear
11:35 AM 81.1 °F 81.9 °F 60.8 °F 50% 29.71 in 10.0 mi South 15.0 mph - N/A   Clear
11:55 AM 81.5 °F 82.0 °F 60.3 °F 48% 29.71 in 10.0 mi South 11.5 mph 18.4 mph N/A   Clear
12:15 PM 82.2 °F 82.7 °F 60.8 °F 48% 29.71 in 10.0 mi South 11.5 mph 16.1 mph N/A   Clear
12:35 PM 82.8 °F 83.1 °F 60.8 °F 47% 29.71 in 10.0 mi South 16.1 mph - N/A   Clear
12:55 PM 83.3 °F 83.5 °F 60.3 °F 46% 29.71 in 10.0 mi SSE 16.1 mph 20.7 mph N/A   Clear
1:15 PM 84.4 °F 84.4 °F 60.4 °F 44% 29.70 in 10.0 mi SSE 13.8 mph 20.7 mph N/A   Clear
1:35 PM 85.3 °F 85.4 °F 61.0 °F 44% 29.70 in 10.0 mi South 13.8 mph 23.0 mph N/A   Clear
1:55 PM 86.4 °F 86.3 °F 60.4 °F 42% 29.70 in 10.0 mi South 15.0 mph 19.6 mph N/A   Clear
2:15 PM 86.7 °F 86.5 °F 60.4 °F 41% 29.69 in 10.0 mi SSE 15.0 mph 21.9 mph N/A   Clear
2:35 PM 87.1 °F 86.7 °F 60.1 °F 40% 29.69 in 10.0 mi South 16.1 mph 20.7 mph N/A   Clear
2:55 PM 87.8 °F 87.4 °F 60.1 °F 39% 29.69 in 10.0 mi South 12.7 mph 18.4 mph N/A   Clear
3:15 PM 88.0 °F 87.4 °F 59.7 °F 38% 29.68 in 10.0 mi South 13.8 mph 18.4 mph N/A   Clear
3:35 PM 88.2 °F 87.8 °F 60.1 °F 39% 29.68 in 10.0 mi South 18.4 mph 23.0 mph N/A   Clear
3:55 PM 88.2 °F 87.3 °F 59.2 °F 37% 29.68 in 10.0 mi SSE 17.3 mph 25.3 mph N/A   Clear
4:15 PM 88.3 °F 87.3 °F 58.3 °F 36% 29.68 in 10.0 mi South 16.1 mph 23.0 mph N/A   Clear
4:35 PM 88.5 °F 87.5 °F 58.3 °F 36% 29.68 in 10.0 mi South 16.1 mph 21.9 mph N/A   Clear
4:55 PM 88.5 °F 87.3 °F 57.6 °F 35% 29.68 in 10.0 mi South 15.0 mph 23.0 mph N/A   Clear
5:15 PM 87.8 °F 86.5 °F 57.0 °F 35% 29.68 in 10.0 mi South 17.3 mph 20.7 mph N/A   Clear
5:35 PM 88.0 °F 86.9 °F 58.1 °F 36% 29.68 in 10.0 mi SSE 15.0 mph 21.9 mph N/A   Clear
5:55 PM 87.4 °F 87.2 °F 60.3 °F 40% 29.68 in 10.0 mi South 16.1 mph 21.9 mph N/A   Clear
6:15 PM 86.7 °F 86.5 °F 60.3 °F 41% 29.69 in 10.0 mi SSE 18.4 mph 25.3 mph N/A   Clear
6:35 PM 85.8 °F 85.4 °F 59.7 °F 41% 29.69 in 10.0 mi SSE 12.7 mph 24.2 mph N/A   Clear
6:55 PM 84.9 °F 85.0 °F 60.8 °F 44% 29.69 in 10.0 mi South 13.8 mph 21.9 mph N/A   Clear
7:15 PM 84.4 °F 84.4 °F 60.3 °F 44% 29.69 in 10.0 mi SSE 16.1 mph 20.7 mph N/A   Clear
7:35 PM 83.7 °F 83.6 °F 59.5 °F 44% 29.70 in 10.0 mi SSE 12.7 mph 24.2 mph N/A   Clear
7:55 PM 82.2 °F 82.7 °F 60.6 °F 48% 29.71 in 10.0 mi SSE 12.7 mph 17.3 mph N/A   Clear
8:15 PM 81.5 °F 82.1 °F 60.6 °F 49% 29.71 in 10.0 mi SSE 12.7 mph - N/A   Clear
8:35 PM 81.0 °F 81.7 °F 60.8 °F 50% 29.72 in 10.0 mi SSE 11.5 mph - N/A   Clear
8:55 PM 80.6 °F 81.5 °F 60.8 °F 51% 29.72 in 10.0 mi South 11.5 mph 19.6 mph N/A   Clear
9:15 PM 80.1 °F 81.1 °F 61.2 °F 52% 29.73 in 10.0 mi SSE 13.8 mph 17.3 mph N/A   Clear
9:35 PM 79.3 °F - 61.3 °F 54% 29.74 in 10.0 mi SSE 10.4 mph 17.3 mph N/A   Clear
9:55 PM 78.3 °F - 61.7 °F 57% 29.75 in 10.0 mi SSE 13.8 mph - N/A   Clear
10:15 PM 77.5 °F - 61.7 °F 58% 29.75 in 10.0 mi SSE 15.0 mph 19.6 mph N/A   Clear
10:35 PM 77.2 °F - 61.5 °F 58% 29.75 in 10.0 mi South 13.8 mph 21.9 mph N/A   Clear
10:55 PM 76.6 °F - 61.0 °F 58% 29.75 in 10.0 mi South 12.7 mph 18.4 mph N/A   Clear
11:15 PM 75.9 °F - 61.3 °F 60% 29.76 in 10.0 mi SSE 10.4 mph 18.4 mph N/A   Clear
11:55 PM 75.0 °F - 61.5 °F 63% 29.77 in 10.0 mi South 10.4 mph - N/A   Clear